ARIANE 2 DEB, 26728

Orbit data source: Space-Track

ARIANE 2 DEB, 26728 is space debris in HEO originally from a launch on Fri, 27 Jan 1989 UTC launched from the French Guiana (FRGUI). Debris objects in space refer to the collection of defunct objects orbiting the Earth. Examples of debris include non-operational satellites, rocket bodies, and fragments generated from explosions, collisions, or faulty payload assembly.

Loading next visibility...
Identifier
26728, 1989-006F
Orbit
HEO
Country
Flag of FRFR
Related business
Manufacturer
EADS/LV
Mission
Spacecraft
Bus & Motor
Unknown
Mass
Unknown
Launch date (UTC)
1989-01-27 (37 years ago)
Launch vehicle
Unknown
Launch site
French Guiana (FRGUI)
Object type
Payload
Rocket body
Debris
Shape & HBR
Unknown shape, 1.1 m
Radar Cross Section
Large (>1 m²)

Expand to show TLE details & history
Last TLE update: 22 hours ago

TLE from 22 hours ago
0 ARIANE 2 DEB
1 26728U 89006F   25291.96095416  .00004300  00000-0  16350-1 0  9990
2 26728   8.3727 311.9321 7039862 327.2374   4.1965  2.47670096214178
Epoch: 2025-10-18T23:03Z
TLE epoch observation values (Epoch: 2025-10-18T23:03:46.439Z)
Latitude
0.00075°
Longitude
-61.75094°
Altitude
957.206 km
Speed
9.56 km/s
True Right ascension
20h 47m 30s
True Declination
0° 00' 03"
Sunlit
Object was in daylight at epoch
Visualization orbit readout
Latitude
Unknown
Longitude
Unknown
Altitude
Unknown
Speed
Unknown
Apparent Right ascension
Unknown
Apparent Declination
Unknown
Sunlit
N/A
Visualization observer readout
Local Sidereal Time
15:38:22
Azimuth
Unknown
Elevation
Unknown
Doppler factor
Unknown
Orbital elements
Apogee altitude
32,951.163 km
Perigee altitude
454.087 km
Semi-major axis
23,080.762 km
Eccentricity
0.70399
Inclination
8.3727°
RAAN
311.9321°
Arg. of periapsis
327.2374°
True anomaly
32.50712°
Mean anomaly
4.1965°
Eccentric anomaly
13.85642°
Mean motion
0.61897 °/min
Orbital period
581.61 mins
BSTAR
0.01635
Loading maneuver chart data...
Computing Atmospheric mass density...
Loading historical data...
Loading historical data...
Loading historical data...
Loading historical data...
Loading historical data...
Loading historical data...
Loading historical data...

Documentation

Showing up to 5 results
|